Regional Weather Roundup
Issued by NWS

Home | Current Version | Previous Version | Text Only | Print | Product List | Glossary Off
Versions: 1 2 3 4 5 6 7 8 9 10 11 12 13 14 15 16 17 18 19 20 21 22 23 24 25 26 27 28 29 30 31 32 33 34 35 36 37 38 39 40 41 42 43 44 45 46 47 48 49 50

000
ASUS43 KMPX 231210
RWRMN
WEATHER ROUNDUP FOR MINNESOTA
NATIONAL WEATHER SERVICE TWIN CITIES/CHANHASSEN MN
700 AM CDT SUN APR 23 2017


NOTE: "FAIR" INDICATES FEW OR NO CLOUDS BELOW 12,000 FEET WITH NO
SIGNIFICANT WEATHER AND/OR OBSTRUCTIONS TO VISIBILITY. N/A MEANS
CURRENT SKY AND/OR WEATHER CONDITIONS ARE NOT AVAILABLE.

MNZ060>063-068>070-231300-
   Twin Cities Metro

CITY           SKY/WX    TMP DP  RH WIND       PRES   REMARKS
TWIN CITIES    PTCLDY    49  36  61 W3        30.09R
6HR MIN TEMP:  49; 6HR MAX TEMP:  55;

ST PAUL        CLEAR     47  39  74 NW6       30.10R
CRYSTAL        CLEAR     47  37  68 NE6       30.09R
BLAINE         PTCLDY    46  39  76 N6        30.09R
LAKEVILLE      CLEAR     46  37  71 W5        30.09R
EDEN PRAIRIE   CLEAR     48  38  68 SW3       30.08R
6HR MIN TEMP:  46; 6HR MAX TEMP:  52;

SOUTH ST PAUL  CLEAR     49  37  62 CALM      30.09R
LAKE ELMO      FAIR      46  37  71 N6        30.09R
$$
MNZ001>005-007-008-013>017-022>024-027-028-231300-
   Northwest Minnesota

CITY           SKY/WX    TMP DP  RH WIND       PRES   REMARKS
BEMIDJI        CLOUDY    32  25  75 NE13      30.19R WCI  22
HALLOCK        CLOUDY    28  19  69 E7        30.26S WCI  21
ROSEAU         CLOUDY    27  21  80 NE8       30.25F WCI  18
WARROAD        PTCLDY    30  16  55 NE14      30.26F WCI  20
THIEF RVR FALL CLOUDY    30  24  78 NE15      30.22S WCI  19
CROOKSTON      CLOUDY    32  27  80 E12       30.22F WCI  23
FOSSTON        CLOUDY    30  28  93 NE9       30.20R WCI  22
DETROIT LAKES  CLOUDY    34  32  93 NE9       30.16S WCI  26
MOORHEAD       RAIN      34  30  86 NE14      30.16F WCI  24
PARK RAPIDS    FLURRIES  33  28  81 NE14      30.15F WCI  23
MAHNOMEN       LGT SNOW  31  28  88 E14       30.18R WCI  21
$$
MNZ006-009>011-018-025>026-231300-
   North Central Minnesota

CITY           SKY/WX    TMP DP  RH WIND       PRES   REMARKS
BAUDETTE       CLOUDY    27  16  63 NE8       30.25S WCI  19
FLAG ISLAND    CLOUDY    28   9  43 NE13      30.26F WCI  18
INTL FALLS     PTCLDY    28  16  60 N8        30.24S WCI  20
6HR MIN TEMP:  28; 6HR MAX TEMP:  34;

WASKISH        CLOUDY    28  25  86 NE9       30.24R WCI  20
BIG FORK       CLOUDY    30  23  74 N7        30.21S WCI  23
LONGVILLE      LGT SNOW  32  32 100 NE5       30.18R WCI  27
GRAND RAPIDS   LGT SNOW  31  29  92 NE8       30.21R VSB 1   WCI  23
CRANE LAKE     MOCLDY    27  21  80 NE5       30.25S WCI  21
ORR            MOCLDY    28  19  69 MISG      30.21R
COOK           CLOUDY    28  21  74 NE3       30.22R
WALKER         LGT SNOW  31  30  96 NE9       30.18F WCI  23
$$
MNZ012-019>021-037-231300-
   Northeast Minnesota

CITY           SKY/WX    TMP DP  RH WIND       PRES   REMARKS
DULUTH         LGT SNOW  34  32  92 NE12      30.17R VSB 3/4 WCI  25
6HR MIN TEMP:  34; 6HR MAX TEMP:  45; 6HR PCP:  0.07;

ELY            CLOUDY    28  19  69 NE6G18    30.21R WCI  22
HIBBING        CLOUDY    29  25  85 NE12      30.20R WCI  19
EVELETH        CLOUDY    32  24  71 NE9       30.21R WCI  24
DULUTH HARBOR  RAIN      36  36 100 N17       30.21R
TWO HARBORS    CLOUDY    36  30  80 N5        30.17R
SILVER BAY     LGT SNOW  34  32  93 CALM      30.17R
GRAND MARAIS     N/A     35  25  66 E3        30.21R
G MARAIS ARPRT CLOUDY    27  19  74 NW10      30.16R WCI  17
$$
MNZ029>031-032-039>041-046>048-054>057-064-231300-
   West Central Minnesota

CITY           SKY/WX    TMP DP  RH WIND       PRES   REMARKS
FERGUS FALLS   MOCLDY    39  34  81 E17G25    30.10F
WHEATON        CLEAR     41  36  81 NE8       30.11F
MORRIS         MOCLDY    41  37  87 E9        30.08S
ALEXANDRIA     CLOUDY    41  36  82 NE14      30.11S
ELBOW LAKE     MOCLDY    40  37  88 NE14      30.09F
WADENA         CLOUDY    36  32  87 NE12      30.14S
GLENWOOD       PTCLDY    39  37  93 NE10      30.10S
APPLETON       CLEAR     36  36 100 CALM      30.08F
BENSON         FOG       36  32  87 CALM      30.11R VSB 1/4
ORTONVILLE     CLEAR     37  36  93 NW3       30.08S
MADISON        CLEAR     37  37 100 W3        30.09F
WILLMAR        FAIR      39  39 100 CALM      30.11R
$$
MNZ033>034-036-042>043-049>051-058-059-231300-
   Central Minnesota

CITY           SKY/WX    TMP DP  RH WIND       PRES   REMARKS
ST CLOUD       CLOUDY    44  37  76 NE9       30.11R
6HR MIN TEMP:  44; 6HR MAX TEMP:  51;

SAUK CENTRE    PTSUNNY   42  37  80 NE12      30.11S
PAYNESVILLE    CLOUDY    45  38  79 NE12      30.11R
AITKIN         CLOUDY    37  32  81 NE10G18   30.15R
PINE RIVER     MIX PCPN  34  34 100 NE8       30.20R WCI  27
BRAINERD       CLOUDY    37  34  89 N13       30.16R
STAPLES        CLOUDY    36  32  87 NE7G16    30.14F
LONG PRAIRIE   CLOUDY    41  36  81 N10       30.12R
LITTLE FALLS   CLOUDY    41  34  75 N6        30.14R
LITCHFIELD     CLEAR     46  41  81 NE7       30.10R
BUFFALO        MOCLDY    46  39  77 N8        30.11R
MAPLE LAKE     CLOUDY    46  41  83 NE7       30.12R
HUTCHINSON     CLOUDY    43  39  86 CALM      30.11R
$$
MNZ037-044-045-052-053-231300-
   East Central Minnesota

CITY           SKY/WX    TMP DP  RH WIND       PRES   REMARKS
PRINCETON      CLOUDY    46  37  71 N10       30.12R
MORA           MOCLDY    41  36  81 NE6       30.14S
CAMBRIDGE      MOCLDY    46  36  66 NE7       30.10R
RUSH CITY      CLOUDY    44  37  78 NE8       30.12R
MOOSE LAKE     LGT RAIN  36  34  93 NE8G17    30.15R
HINCKLEY       RAIN      41  39  93 N8        30.14R
CLOQUET        LGT SNOW  34  30  86 NE6       30.16S WCI  29
MCGREGOR       CLOUDY    34  32  93 NE8       30.18R WCI  27
$$
MNZ071>073-080-081-089-090-097-098-231300-
   Southwest Minnesota

CITY           SKY/WX    TMP DP  RH WIND       PRES   REMARKS
MONTEVIDEO     CLEAR     37  36  93 CALM      30.10S
GRANITE FALLS  CLEAR     38  37  93 NW5       30.11R
CANBY          CLEAR     37  35  95 CALM      30.11S
MARSHALL       CLEAR     38  36  92 NW6       30.11R
REDWOOD FALLS  CLEAR     43  37  79 N9        30.09R
OLIVIA         CLEAR     39  36  87 NW6       30.09R
PIPESTONE      CLEAR     39  30  70 SW5       30.08R
WINDOM         CLEAR     46  36  66 S7        30.09S
WORTHINGTON    CLEAR     49  31  49 SW15      30.10S
JACKSON        CLEAR     45  32  61 SW8       30.10S
TRACY          CLEAR     40  39  94 CALM      30.10R
SLAYTON        CLEAR     47  32  55 SW15      30.08F
$$
MNZ065>067-074>077-082>085-091>093-231300-
   South Central Minnesota

CITY           SKY/WX    TMP DP  RH WIND       PRES   REMARKS
MANKATO        CLEAR     49  35  58 SW6       30.09S
NEW ULM        CLEAR     45  36  70 W5        30.09R
ST JAMES       CLEAR     45  36  70 S7        30.10R
FAIRMONT       CLEAR     40  34  79 S6        30.11S
GLENCOE        CLEAR     45  40  84 CALM      30.09R
FARIBAULT      CLEAR     45  37  76 S5        30.10R
OWATONNA       CLEAR     45  36  70 SW5       30.10R
WASECA         CLEAR     41  36  81 CALM      30.11R
ALBERT LEA     PTCLDY    46  36  66 SW5       30.10S
$$
MNZ078>079-086>088-094>096-231300-
   Southeast Minnesota

CITY           SKY/WX    TMP DP  RH WIND       PRES   REMARKS
ROCHESTER      CLEAR     43  36  76 SW8       30.11R
6HR MIN TEMP:  42; 6HR MAX TEMP:  47;

RED WING       CLEAR     46  36  66 NW3       30.09R
STANTON        CLEAR     42  37  81 SW6       30.08R
DODGE CENTER   CLEAR     43  36  75 SW6       30.10R
WINONA         CLEAR     48  36  61 CALM      30.09S
AUSTIN         PTCLDY    43  34  70 SW3       30.11R
PRESTON        PTCLDY    46  32  58 W8        30.11R
$$
ABBREVIATIONS USED IN REMARKS
   TC - TEMPERATURES IN CELSIUS
  WCI - WIND CHILL INDEX
   HX - HEAT INDEX
  VSB - VISIBILITY
$$




USA.gov is the U.S. government's official web portal to all federal, state and local government web resources and services.